Time,TemperatureF,DewpointF,PressureIn,WindDirection,WindDirectionDegrees,WindSpeedMPH,WindSpeedGustMPH,Humidity,HourlyPrecipIn,Conditions,Clouds,dailyrainin,SoftwareType,DateUTC
2013-07-13 00:01:00,65.0,12.9,30.29,SE,135,0.0,0.0,13,0.00,,,0.00,Weather View 32 v70,2013-07-13 04:01:00,
2013-07-13 00:02:00,65.0,2.1,30.29,SE,135,0.0,0.0,8,0.00,,,0.00,Weather View 32 v70,2013-07-13 04:02:00,
2013-07-13 00:07:00,65.0,-0.7,30.29,SE,135,0.0,0.0,7,0.00,,,0.00,Weather View 32 v70,2013-07-13 04:07:00,
2013-07-13 00:12:00,65.0,-0.7,30.29,SE,135,0.0,0.0,7,0.00,,,0.00,Weather View 32 v70,2013-07-13 04:12:00,
2013-07-13 00:17:00,65.0,-38.1,30.29,SE,135,0.0,0.0,1,0.00,,,0.00,Weather View 32 v70,2013-07-13 04:17:00,
2013-07-13 00:22:00,64.0,-38.7,30.29,SE,135,0.0,0.0,1,0.00,,,0.00,Weather View 32 v70,2013-07-13 04:22:00,
2013-07-13 00:27:00,64.0,-38.7,30.29,SE,135,0.0,0.0,1,0.00,,,0.00,Weather View 32 v70,2013-07-13 04:27:00,
2013-07-13 00:32:00,64.0,-38.7,30.29,SE,135,0.0,0.0,1,0.00,,,0.00,Weather View 32 v70,2013-07-13 04:32:00,
2013-07-13 00:37:00,63.0,-39.3,30.29,SE,135,0.0,0.0,1,0.00,,,0.00,Weather View 32 v70,2013-07-13 04:37:00,
2013-07-13 00:42:00,63.0,-39.3,30.29,SE,135,0.0,0.0,1,0.00,,,0.00,Weather View 32 v70,2013-07-13 04:42:00,
2013-07-13 00:47:00,63.0,-39.3,30.29,SE,135,0.0,0.0,1,0.00,,,0.00,Weather View 32 v70,2013-07-13 04:47:00,
2013-07-13 00:52:00,63.0,-39.3,30.29,SE,135,0.0,0.0,1,0.00,,,0.00,Weather View 32 v70,2013-07-13 04:52:00,
2013-07-13 00:58:00,63.0,-39.3,30.29,SE,135,0.0,0.0,1,0.00,,,0.00,Weather View 32 v70,2013-07-13 04:58:00,
2013-07-13 01:03:00,63.0,-39.3,30.29,SE,135,0.0,0.0,1,0.00,,,0.00,Weather View 32 v70,2013-07-13 05:03:00,
2013-07-13 01:08:00,63.0,-39.3,30.29,SE,135,0.0,0.0,1,0.00,,,0.00,Weather View 32 v70,2013-07-13 05:08:00,
2013-07-13 01:13:00,63.0,-39.3,30.29,SE,135,0.0,0.0,1,0.00,,,0.00,Weather View 32 v70,2013-07-13 05:13:00,
2013-07-13 01:18:00,63.0,-39.3,30.29,SE,135,0.0,0.0,1,0.00,,,0.00,Weather View 32 v70,2013-07-13 05:18:00,
2013-07-13 01:23:00,63.0,-39.3,30.29,SE,135,0.0,0.0,1,0.00,,,0.00,Weather View 32 v70,2013-07-13 05:23:00,
2013-07-13 01:28:00,63.0,-39.3,30.29,SE,135,0.0,0.0,1,0.00,,,0.00,Weather View 32 v70,2013-07-13 05:28:00,
2013-07-13 01:33:00,63.0,-39.3,30.29,SE,135,0.0,0.0,1,0.00,,,0.00,Weather View 32 v70,2013-07-13 05:33:00,
2013-07-13 01:38:00,64.0,-38.7,30.29,SE,135,0.0,0.0,1,0.00,,,0.00,Weather View 32 v70,2013-07-13 05:38:00,
2013-07-13 01:43:00,64.0,-38.7,30.29,SE,135,0.0,0.0,1,0.00,,,0.00,Weather View 32 v70,2013-07-13 05:43:00,
2013-07-13 01:48:00,64.0,-38.7,30.29,SE,135,0.0,0.0,1,0.00,,,0.00,Weather View 32 v70,2013-07-13 05:48:00,
2013-07-13 01:53:00,64.0,-38.7,30.29,SE,135,0.0,0.0,1,0.00,,,0.00,Weather View 32 v70,2013-07-13 05:53:00,
2013-07-13 01:58:00,64.0,-38.7,30.29,SE,135,0.0,0.0,1,0.00,,,0.00,Weather View 32 v70,2013-07-13 05:58:00,
2013-07-13 02:03:00,64.0,-38.7,30.29,SE,135,0.0,0.0,1,0.00,,,0.00,Weather View 32 v70,2013-07-13 06:03:00,
2013-07-13 02:08:00,64.0,-38.7,30.30,SE,135,0.0,0.0,1,0.00,,,0.00,Weather View 32 v70,2013-07-13 06:08:00,
2013-07-13 02:13:00,64.0,-38.7,30.30,SE,135,0.0,0.0,1,0.00,,,0.00,Weather View 32 v70,2013-07-13 06:13:00,
2013-07-13 02:18:00,64.0,-38.7,30.30,SE,135,0.0,0.0,1,0.00,,,0.00,Weather View 32 v70,2013-07-13 06:18:00,
2013-07-13 02:23:00,64.0,-38.7,30.30,SE,135,0.0,0.0,1,0.00,,,0.00,Weather View 32 v70,2013-07-13 06:23:00,
2013-07-13 02:28:00,64.0,-38.7,30.30,SE,135,0.0,0.0,1,0.00,,,0.00,Weather View 32 v70,2013-07-13 06:28:00,
2013-07-13 02:33:00,64.0,-38.7,30.30,SE,135,0.0,0.0,1,0.00,,,0.00,Weather View 32 v70,2013-07-13 06:33:00,
2013-07-13 02:38:00,64.0,-38.7,30.30,SE,135,0.0,0.0,1,0.00,,,0.00,Weather View 32 v70,2013-07-13 06:38:00,
2013-07-13 02:43:00,64.0,-38.7,30.30,SE,135,0.0,0.0,1,0.00,,,0.00,Weather View 32 v70,2013-07-13 06:43:00,
2013-07-13 02:48:00,64.0,-38.7,30.30,SE,135,0.0,0.0,1,0.00,,,0.00,Weather View 32 v70,2013-07-13 06:48:00,
2013-07-13 02:53:00,64.0,-38.7,30.30,SE,135,0.0,0.0,1,0.00,,,0.00,Weather View 32 v70,2013-07-13 06:53:00,
2013-07-13 02:58:00,64.0,-38.7,30.30,SE,135,0.0,0.0,1,0.00,,,0.00,Weather View 32 v70,2013-07-13 06:58:00,
2013-07-13 03:03:00,64.0,-38.7,30.30,SE,135,0.0,0.0,1,0.00,,,0.00,Weather View 32 v70,2013-07-13 07:03:00,
2013-07-13 03:08:00,64.0,-38.7,30.30,SE,135,0.0,0.0,1,0.00,,,0.00,Weather View 32 v70,2013-07-13 07:08:00,
2013-07-13 03:13:00,64.0,-38.7,30.30,SE,135,0.0,0.0,1,0.00,,,0.00,Weather View 32 v70,2013-07-13 07:13:00,
2013-07-13 03:18:00,64.0,-38.7,30.31,SE,135,0.0,0.0,1,0.00,,,0.00,Weather View 32 v70,2013-07-13 07:18:00,
2013-07-13 03:23:00,64.0,-38.7,30.31,SE,135,0.0,0.0,1,0.00,,,0.00,Weather View 32 v70,2013-07-13 07:23:00,
2013-07-13 03:28:00,64.0,-38.7,30.31,SE,135,0.0,0.0,1,0.00,,,0.00,Weather View 32 v70,2013-07-13 07:28:00,
2013-07-13 03:33:00,64.0,-38.7,30.31,SE,135,0.0,0.0,1,0.00,,,0.00,Weather View 32 v70,2013-07-13 07:33:00,
2013-07-13 03:39:00,65.0,-38.1,30.31,SE,135,0.0,0.0,1,0.00,,,0.00,Weather View 32 v70,2013-07-13 07:39:00,
2013-07-13 03:44:00,65.0,-38.1,30.31,SE,135,0.0,0.0,1,0.00,,,0.00,Weather View 32 v70,2013-07-13 07:44:00,
2013-07-13 03:49:00,65.0,-38.1,30.31,East,90,0.0,2.0,1,0.00,,,0.00,Weather View 32 v70,2013-07-13 07:49:00,
2013-07-13 03:54:00,65.0,-38.1,30.31,East,90,0.0,2.0,1,0.00,,,0.00,Weather View 32 v70,2013-07-13 07:54:00,
2013-07-13 03:59:00,65.0,-38.1,30.32,East,90,0.0,2.0,1,0.00,,,0.00,Weather View 32 v70,2013-07-13 07:59:00,
2013-07-13 04:04:00,65.0,-38.1,30.32,East,90,0.0,2.0,1,0.00,,,0.00,Weather View 32 v70,2013-07-13 08:04:00,
2013-07-13 04:09:00,65.0,-38.1,30.32,East,90,0.0,2.0,1,0.00,,,0.00,Weather View 32 v70,2013-07-13 08:09:00,
2013-07-13 04:14:00,65.0,-38.1,30.32,ENE,67,1.0,3.0,1,0.00,,,0.00,Weather View 32 v70,2013-07-13 08:14:00,
2013-07-13 04:19:00,65.0,-38.1,30.32,ENE,67,0.0,3.0,1,0.00,,,0.00,Weather View 32 v70,2013-07-13 08:19:00,
2013-07-13 04:24:00,65.0,-38.1,30.32,ENE,67,0.0,3.0,1,0.00,,,0.00,Weather View 32 v70,2013-07-13 08:24:00,
2013-07-13 04:29:00,65.0,-38.1,30.32,NE,45,2.0,5.0,1,0.00,,,0.00,Weather View 32 v70,2013-07-13 08:29:00,
2013-07-13 04:34:00,65.0,-38.1,30.32,NNE,22,0.0,5.0,1,0.00,,,0.00,Weather View 32 v70,2013-07-13 08:34:00,
2013-07-13 04:39:00,65.0,-38.1,30.32,WNW,292,1.0,5.0,1,0.00,,,0.00,Weather View 32 v70,2013-07-13 08:39:00,
2013-07-13 04:44:00,65.0,-38.1,30.32,NNE,22,0.0,5.0,1,0.00,,,0.00,Weather View 32 v70,2013-07-13 08:44:00,
2013-07-13 04:49:00,65.0,-38.1,30.33,NE,45,0.0,5.0,1,0.00,,,0.00,Weather View 32 v70,2013-07-13 08:49:00,
2013-07-13 04:54:00,65.0,-38.1,30.33,NE,45,1.0,5.0,1,0.00,,,0.00,Weather View 32 v70,2013-07-13 08:54:00,
2013-07-13 04:59:00,65.0,-38.1,30.33,NE,45,0.0,5.0,1,0.00,,,0.00,Weather View 32 v70,2013-07-13 08:59:00,
2013-07-13 05:04:00,65.0,-38.1,30.33,NE,45,0.0,5.0,1,0.00,,,0.00,Weather View 32 v70,2013-07-13 09:04:00,
2013-07-13 05:09:00,65.0,-38.1,30.33,NE,45,3.0,5.0,1,0.00,,,0.00,Weather View 32 v70,2013-07-13 09:09:00,
2013-07-13 05:14:00,65.0,-38.1,30.34,NE,45,0.0,5.0,1,0.00,,,0.00,Weather View 32 v70,2013-07-13 09:14:00,
2013-07-13 05:19:00,65.0,-38.1,30.34,NE,45,0.0,5.0,1,0.00,,,0.00,Weather View 32 v70,2013-07-13 09:19:00,
2013-07-13 05:24:00,65.0,-38.1,30.34,NE,45,1.0,5.0,1,0.00,,,0.00,Weather View 32 v70,2013-07-13 09:24:00,
2013-07-13 05:29:00,65.0,-38.1,30.34,NE,45,2.0,5.0,1,0.00,,,0.00,Weather View 32 v70,2013-07-13 09:29:00,
2013-07-13 05:34:00,65.0,-38.1,30.34,NE,45,0.0,5.0,1,0.00,,,0.00,Weather View 32 v70,2013-07-13 09:34:00,
2013-07-13 05:39:00,65.0,-38.1,30.34,NNE,22,1.0,5.0,1,0.00,,,0.00,Weather View 32 v70,2013-07-13 09:39:00,
2013-07-13 05:40:00,65.0,-38.1,30.34,NNE,22,0.0,5.0,1,0.00,,,0.00,Weather View 32 v70,2013-07-13 09:40:00,
2013-07-13 05:45:00,65.0,-38.1,30.35,NNE,22,0.0,5.0,1,0.00,,,0.00,Weather View 32 v70,2013-07-13 09:45:00,
2013-07-13 05:50:00,65.0,-38.1,30.35,ENE,67,0.0,5.0,1,0.00,,,0.00,Weather View 32 v70,2013-07-13 09:50:00,
2013-07-13 05:55:00,65.0,-38.1,30.35,ENE,67,0.0,4.0,1,0.00,,,0.00,Weather View 32 v70,2013-07-13 09:55:00,
2013-07-13 06:00:00,65.0,-38.1,30.35,NE,45,0.0,4.0,1,0.00,,,0.00,Weather View 32 v70,2013-07-13 10:00:00,
2013-07-13 06:05:00,65.0,-38.1,30.35,NE,45,2.0,4.0,1,0.00,,,0.00,Weather View 32 v70,2013-07-13 10:05:00,
2013-07-13 06:10:00,65.0,-38.1,30.35,NE,45,0.0,4.0,1,0.00,,,0.00,Weather View 32 v70,2013-07-13 10:10:00,
2013-07-13 06:15:00,65.0,-38.1,30.35,NE,45,0.0,4.0,1,0.00,,,0.00,Weather View 32 v70,2013-07-13 10:15:00,
2013-07-13 06:20:00,65.0,-38.1,30.35,NNE,22,0.0,4.0,1,0.00,,,0.00,Weather View 32 v70,2013-07-13 10:20:00,
2013-07-13 06:25:00,66.0,-37.5,30.35,NE,45,2.0,4.0,1,0.00,,,0.00,Weather View 32 v70,2013-07-13 10:25:00,
2013-07-13 06:30:00,66.0,-37.5,30.35,West,270,2.0,4.0,1,0.00,,,0.00,Weather View 32 v70,2013-07-13 10:30:00,
2013-07-13 06:35:00,66.0,-37.5,30.35,ENE,67,1.0,4.0,1,0.00,,,0.00,Weather View 32 v70,2013-07-13 10:35:00,
2013-07-13 06:40:00,66.0,-37.5,30.35,ENE,67,0.0,4.0,1,0.00,,,0.00,Weather View 32 v70,2013-07-13 10:40:00,
2013-07-13 06:45:00,66.0,-37.5,30.35,ENE,67,0.0,4.0,1,0.00,,,0.00,Weather View 32 v70,2013-07-13 10:45:00,
2013-07-13 06:50:00,66.0,-37.5,30.36,ENE,67,0.0,4.0,1,0.00,,,0.00,Weather View 32 v70,2013-07-13 10:50:00,
2013-07-13 06:55:00,66.0,-37.5,30.35,NE,45,1.0,4.0,1,0.00,,,0.00,Weather View 32 v70,2013-07-13 10:55:00,
2013-07-13 07:00:00,66.0,-37.5,30.35,NE,45,0.0,4.0,1,0.00,,,0.00,Weather View 32 v70,2013-07-13 11:00:00,
2013-07-13 07:05:00,66.0,-37.5,30.35,NE,45,0.0,4.0,1,0.00,,,0.00,Weather View 32 v70,2013-07-13 11:05:00,
2013-07-13 07:10:00,66.0,-37.5,30.36,NE,45,0.0,4.0,1,0.00,,,0.00,Weather View 32 v70,2013-07-13 11:10:00,
2013-07-13 07:15:00,66.0,-37.5,30.36,NE,45,1.0,4.0,1,0.00,,,0.00,Weather View 32 v70,2013-07-13 11:15:00,
2013-07-13 07:20:00,66.0,-37.5,30.36,NE,45,4.0,4.0,1,0.00,,,0.00,Weather View 32 v70,2013-07-13 11:20:00,
2013-07-13 07:25:00,66.0,-37.5,30.36,ENE,67,0.0,6.0,1,0.00,,,0.00,Weather View 32 v70,2013-07-13 11:25:00,
2013-07-13 07:30:00,67.0,-36.9,30.37,NE,45,2.0,6.0,1,0.00,,,0.00,Weather View 32 v70,2013-07-13 11:30:00,
2013-07-13 07:35:00,67.0,-36.9,30.37,NNE,22,0.0,6.0,1,0.00,,,0.00,Weather View 32 v70,2013-07-13 11:35:00,
2013-07-13 07:40:00,67.0,-36.9,30.37,NNE,22,1.0,6.0,1,0.00,,,0.00,Weather View 32 v70,2013-07-13 11:40:00,
2013-07-13 07:45:00,67.0,-36.9,30.37,NE,45,0.0,6.0,1,0.00,,,0.00,Weather View 32 v70,2013-07-13 11:45:00,
2013-07-13 07:50:00,67.0,-36.9,30.37,NE,45,0.0,6.0,1,0.00,,,0.00,Weather View 32 v70,2013-07-13 11:50:00,
2013-07-13 07:55:00,67.0,-36.9,30.38,NE,45,0.0,6.0,1,0.00,,,0.00,Weather View 32 v70,2013-07-13 11:55:00,
2013-07-13 08:00:00,67.0,-36.9,30.38,NE,45,0.0,6.0,1,0.00,,,0.00,Weather View 32 v70,2013-07-13 12:00:00,
2013-07-13 08:05:00,67.0,-36.9,30.39,NE,45,2.0,6.0,1,0.00,,,0.00,Weather View 32 v70,2013-07-13 12:05:00,
2013-07-13 08:11:00,67.0,-36.9,30.39,NE,45,3.0,6.0,1,0.00,,,0.00,Weather View 32 v70,2013-07-13 12:11:00,
2013-07-13 08:16:00,67.0,-36.9,30.39,NE,45,2.0,6.0,1,0.00,,,0.00,Weather View 32 v70,2013-07-13 12:16:00,
2013-07-13 08:21:00,67.0,-36.9,30.39,NE,45,2.0,6.0,1,0.00,,,0.00,Weather View 32 v70,2013-07-13 12:21:00,
2013-07-13 08:26:00,67.0,-36.9,30.39,NE,45,1.0,5.0,1,0.00,,,0.00,Weather View 32 v70,2013-07-13 12:26:00,
2013-07-13 08:31:00,67.0,-36.9,30.39,NE,45,0.0,5.0,1,0.00,,,0.00,Weather View 32 v70,2013-07-13 12:31:00,
2013-07-13 08:36:00,68.0,-36.3,30.39,NE,45,2.0,5.0,1,0.00,,,0.00,Weather View 32 v70,2013-07-13 12:36:00,
2013-07-13 08:41:00,68.0,-36.3,30.39,ESE,112,0.0,5.0,1,0.00,,,0.00,Weather View 32 v70,2013-07-13 12:41:00,
2013-07-13 08:46:00,69.0,-35.7,30.39,ESE,112,0.0,4.0,1,0.00,,,0.00,Weather View 32 v70,2013-07-13 12:46:00,
2013-07-13 08:51:00,69.0,-35.7,30.39,NE,45,0.0,5.0,1,0.00,,,0.00,Weather View 32 v70,2013-07-13 12:51:00,
2013-07-13 08:56:00,70.0,-35.1,30.39,ENE,67,0.0,5.0,1,0.00,,,0.00,Weather View 32 v70,2013-07-13 12:56:00,
2013-07-13 09:01:00,70.0,-35.1,30.40,ENE,67,1.0,6.0,1,0.00,,,0.00,Weather View 32 v70,2013-07-13 13:01:00,
2013-07-13 09:06:00,70.0,-35.1,30.40,South,180,2.0,6.0,1,0.00,,,0.00,Weather View 32 v70,2013-07-13 13:06:00,
2013-07-13 09:11:00,70.0,-35.1,30.40,South,180,0.0,6.0,1,0.00,,,0.00,Weather View 32 v70,2013-07-13 13:11:00,
2013-07-13 09:16:00,70.0,-35.1,30.40,NE,45,4.0,6.0,1,0.00,,,0.00,Weather View 32 v70,2013-07-13 13:16:00,
2013-07-13 09:21:00,70.0,-35.1,30.40,South,180,0.0,6.0,1,0.00,,,0.00,Weather View 32 v70,2013-07-13 13:21:00,
2013-07-13 09:26:00,71.0,-34.5,30.40,South,180,0.0,6.0,1,0.00,,,0.00,Weather View 32 v70,2013-07-13 13:26:00,
2013-07-13 09:31:00,71.0,-34.5,30.39,SSE,157,1.0,6.0,1,0.00,,,0.00,Weather View 32 v70,2013-07-13 13:31:00,
2013-07-13 09:36:00,71.0,-34.5,30.40,ENE,67,1.0,6.0,1,0.00,,,0.00,Weather View 32 v70,2013-07-13 13:36:00,
2013-07-13 09:41:00,71.0,-34.5,30.40,SSE,157,0.0,6.0,1,0.00,,,0.00,Weather View 32 v70,2013-07-13 13:41:00,
2013-07-13 09:46:00,71.0,-34.5,30.40,SSW,202,0.0,6.0,1,0.00,,,0.00,Weather View 32 v70,2013-07-13 13:46:00,
2013-07-13 09:51:00,71.0,-34.5,30.40,NE,45,3.0,6.0,1,0.00,,,0.00,Weather View 32 v70,2013-07-13 13:51:00,
2013-07-13 09:56:00,71.0,-34.5,30.40,NE,45,1.0,6.0,1,0.00,,,0.00,Weather View 32 v70,2013-07-13 13:56:00,
2013-07-13 10:01:00,71.0,-34.5,30.40,SE,135,0.0,6.0,1,0.00,,,0.00,Weather View 32 v70,2013-07-13 14:01:00,
2013-07-13 10:06:00,71.0,-34.5,30.40,SSW,202,0.0,6.0,1,0.00,,,0.00,Weather View 32 v70,2013-07-13 14:06:00,
2013-07-13 10:11:00,71.0,-34.5,30.40,ESE,112,0.0,6.0,1,0.00,,,0.00,Weather View 32 v70,2013-07-13 14:11:00,
2013-07-13 10:16:00,71.0,-34.5,30.40,South,180,0.0,6.0,1,0.00,,,0.00,Weather View 32 v70,2013-07-13 14:16:00,
2013-07-13 10:21:00,72.0,-33.9,30.40,North,360,2.0,6.0,1,0.00,,,0.00,Weather View 32 v70,2013-07-13 14:21:00,
2013-07-13 10:26:00,72.0,-33.9,30.40,South,180,0.0,6.0,1,0.00,,,0.00,Weather View 32 v70,2013-07-13 14:26:00,
2013-07-13 10:31:00,72.0,-33.9,30.41,ENE,67,2.0,6.0,1,0.00,,,0.00,Weather View 32 v70,2013-07-13 14:31:00,
2013-07-13 10:36:00,72.0,-33.9,30.41,NE,45,6.0,6.0,1,0.00,,,0.00,Weather View 32 v70,2013-07-13 14:36:00,
2013-07-13 10:41:00,72.0,-33.9,30.41,SE,135,1.0,6.0,1,0.00,,,0.00,Weather View 32 v70,2013-07-13 14:41:00,
2013-07-13 10:46:00,72.0,-33.9,30.41,South,180,0.0,6.0,1,0.00,,,0.00,Weather View 32 v70,2013-07-13 14:46:00,
2013-07-13 10:51:00,73.0,-33.3,30.41,SSW,202,4.0,6.0,1,0.00,,,0.00,Weather View 32 v70,2013-07-13 14:51:00,
2013-07-13 10:56:00,73.0,-33.3,30.41,SSE,157,1.0,6.0,1,0.00,,,0.00,Weather View 32 v70,2013-07-13 14:56:00,
2013-07-13 11:01:00,74.0,-32.7,30.41,SSW,202,1.0,6.0,1,0.00,,,0.00,Weather View 32 v70,2013-07-13 15:01:00,
2013-07-13 11:06:00,74.0,-19.8,30.41,South,180,0.0,6.0,2,0.00,,,0.00,Weather View 32 v70,2013-07-13 15:06:00,
2013-07-13 11:11:00,74.0,-11.8,30.41,East,90,2.0,6.0,3,0.00,,,0.00,Weather View 32 v70,2013-07-13 15:11:00,
2013-07-13 11:16:00,74.0,-11.8,30.42,SSE,157,2.0,6.0,3,0.00,,,0.00,Weather View 32 v70,2013-07-13 15:16:00,
2013-07-13 11:21:00,75.0,-32.1,30.42,SE,135,0.0,6.0,1,0.00,,,0.00,Weather View 32 v70,2013-07-13 15:21:00,
2013-07-13 11:26:00,75.0,-11.2,30.42,NNE,22,0.0,6.0,3,0.00,,,0.00,Weather View 32 v70,2013-07-13 15:26:00,
2013-07-13 11:31:00,75.0,3.3,30.42,ENE,67,2.0,6.0,6,0.00,,,0.00,Weather View 32 v70,2013-07-13 15:31:00,
2013-07-13 11:36:00,76.0,-31.5,30.42,NNE,22,0.0,6.0,1,0.00,,,0.00,Weather View 32 v70,2013-07-13 15:36:00,
2013-07-13 11:42:00,77.0,8.1,30.42,ENE,67,2.0,6.0,7,0.00,,,0.00,Weather View 32 v70,2013-07-13 15:42:00,
2013-07-13 11:47:00,78.0,19.1,30.42,South,180,1.0,6.0,11,0.00,,,0.00,Weather View 32 v70,2013-07-13 15:47:00,
2013-07-13 11:52:00,79.0,39.0,30.42,South,180,3.0,6.0,24,0.00,,,0.00,Weather View 32 v70,2013-07-13 15:52:00,
2013-07-13 11:57:00,79.0,31.8,30.42,North,360,0.0,6.0,18,0.00,,,0.00,Weather View 32 v70,2013-07-13 15:57:00,
2013-07-13 12:02:00,78.0,33.6,30.42,ENE,67,0.0,6.0,20,0.00,,,0.00,Weather View 32 v70,2013-07-13 16:02:00,
2013-07-13 12:07:00,78.0,36.0,30.43,South,180,6.0,6.0,22,0.00,,,0.00,Weather View 32 v70,2013-07-13 16:07:00,
2013-07-13 12:12:00,78.0,31.0,30.42,South,180,1.0,6.0,18,0.00,,,0.00,Weather View 32 v70,2013-07-13 16:12:00,
2013-07-13 12:17:00,78.0,32.3,30.42,SSW,202,3.0,6.0,19,0.00,,,0.00,Weather View 32 v70,2013-07-13 16:17:00,
2013-07-13 12:22:00,77.0,28.7,30.42,SW,225,2.0,6.0,17,0.00,,,0.00,Weather View 32 v70,2013-07-13 16:22:00,
2013-07-13 12:27:00,77.0,18.4,30.42,NNE,22,1.0,6.0,11,0.00,,,0.00,Weather View 32 v70,2013-07-13 16:27:00,
2013-07-13 12:32:00,76.0,10.3,30.42,South,180,0.0,6.0,8,0.00,,,0.00,Weather View 32 v70,2013-07-13 16:32:00,
2013-07-13 12:37:00,76.0,10.3,30.42,East,90,0.0,6.0,8,0.00,,,0.00,Weather View 32 v70,2013-07-13 16:37:00,
2013-07-13 12:42:00,76.0,4.0,30.42,East,90,1.0,6.0,6,0.00,,,0.00,Weather View 32 v70,2013-07-13 16:42:00,
2013-07-13 12:47:00,76.0,4.0,30.42,NE,45,2.0,6.0,6,0.00,,,0.00,Weather View 32 v70,2013-07-13 16:47:00,
2013-07-13 12:52:00,76.0,-10.5,30.42,NE,45,2.0,6.0,3,0.00,,,0.00,Weather View 32 v70,2013-07-13 16:52:00,
2013-07-13 12:57:00,76.0,-4.6,30.42,SE,135,1.0,6.0,4,0.00,,,0.00,Weather View 32 v70,2013-07-13 16:57:00,
2013-07-13 13:02:00,76.0,4.0,30.42,NE,45,0.0,6.0,6,0.00,,,0.00,Weather View 32 v70,2013-07-13 17:02:00,
2013-07-13 13:07:00,76.0,-10.5,30.42,South,180,0.0,6.0,3,0.00,,,0.00,Weather View 32 v70,2013-07-13 17:07:00,
2013-07-13 13:12:00,76.0,10.3,30.43,ENE,67,2.0,6.0,8,0.00,,,0.00,Weather View 32 v70,2013-07-13 17:12:00,
2013-07-13 13:17:00,76.0,0.1,30.43,NNE,22,2.0,6.0,5,0.00,,,0.00,Weather View 32 v70,2013-07-13 17:17:00,
2013-07-13 13:22:00,76.0,-4.6,30.43,WSW,247,0.0,6.0,4,0.00,,,0.00,Weather View 32 v70,2013-07-13 17:22:00,
2013-07-13 13:27:00,76.0,-10.5,30.43,ENE,67,1.0,6.0,3,0.00,,,0.00,Weather View 32 v70,2013-07-13 17:27:00,
2013-07-13 13:32:00,76.0,-18.5,30.42,SE,135,0.0,6.0,2,0.00,,,0.00,Weather View 32 v70,2013-07-13 17:32:00,
2013-07-13 13:37:00,76.0,-4.6,30.42,NE,45,1.0,6.0,4,0.00,,,0.00,Weather View 32 v70,2013-07-13 17:37:00,
2013-07-13 13:42:00,76.0,-10.5,30.42,NE,45,2.0,6.0,3,0.00,,,0.00,Weather View 32 v70,2013-07-13 17:42:00,
2013-07-13 13:47:00,75.0,-32.1,30.42,SSE,157,0.0,6.0,1,0.00,,,0.00,Weather View 32 v70,2013-07-13 17:47:00,
2013-07-13 13:52:00,75.0,-32.1,30.42,ENE,67,4.0,6.0,1,0.00,,,0.00,Weather View 32 v70,2013-07-13 17:52:00,
2013-07-13 13:57:00,75.0,-32.1,30.42,ENE,67,3.0,6.0,1,0.00,,,0.00,Weather View 32 v70,2013-07-13 17:57:00,
2013-07-13 14:02:00,76.0,-31.5,30.42,NNE,22,0.0,6.0,1,0.00,,,0.00,Weather View 32 v70,2013-07-13 18:02:00,
2013-07-13 14:07:00,76.0,-18.5,30.42,NNE,22,0.0,6.0,2,0.00,,,0.00,Weather View 32 v70,2013-07-13 18:07:00,
2013-07-13 14:12:00,76.0,-4.6,30.42,ENE,67,6.0,6.0,4,0.00,,,0.00,Weather View 32 v70,2013-07-13 18:12:00,
2013-07-13 14:17:00,76.0,-18.5,30.42,NE,45,2.0,6.0,2,0.00,,,0.00,Weather View 32 v70,2013-07-13 18:17:00,
2013-07-13 14:22:00,76.0,-31.5,30.43,NNE,22,3.0,6.0,1,0.00,,,0.00,Weather View 32 v70,2013-07-13 18:22:00,
2013-07-13 14:27:00,77.0,11.1,30.42,SSE,157,0.0,6.0,8,0.00,,,0.00,Weather View 32 v70,2013-07-13 18:27:00,
2013-07-13 14:33:00,77.0,13.7,30.43,SSE,157,0.0,6.0,9,0.00,,,0.00,Weather View 32 v70,2013-07-13 18:33:00,
2013-07-13 14:38:00,77.0,13.7,30.43,NE,45,0.0,6.0,9,0.00,,,0.00,Weather View 32 v70,2013-07-13 18:38:00,
2013-07-13 14:43:00,78.0,1.5,30.43,East,90,3.0,6.0,5,0.00,,,0.00,Weather View 32 v70,2013-07-13 18:43:00,
2013-07-13 14:48:00,78.0,14.5,30.43,South,180,0.0,6.0,9,0.00,,,0.00,Weather View 32 v70,2013-07-13 18:48:00,
2013-07-13 14:53:00,78.0,14.5,30.43,South,180,0.0,6.0,9,0.00,,,0.00,Weather View 32 v70,2013-07-13 18:53:00,
2013-07-13 14:58:00,78.0,14.5,30.42,NE,45,4.0,6.0,9,0.00,,,0.00,Weather View 32 v70,2013-07-13 18:58:00,
2013-07-13 15:03:00,78.0,16.9,30.42,SSW,202,1.0,6.0,10,0.00,,,0.00,Weather View 32 v70,2013-07-13 19:03:00,
2013-07-13 15:08:00,79.0,23.8,30.42,ENE,67,3.0,6.0,13,0.00,,,0.00,Weather View 32 v70,2013-07-13 19:08:00,
2013-07-13 15:13:00,79.0,6.1,30.42,SSE,157,1.0,6.0,6,0.00,,,0.00,Weather View 32 v70,2013-07-13 19:13:00,
2013-07-13 15:18:00,79.0,25.6,30.42,SSW,202,0.0,6.0,14,0.00,,,0.00,Weather View 32 v70,2013-07-13 19:18:00,
2013-07-13 15:23:00,79.0,31.8,30.42,NE,45,2.0,6.0,18,0.00,,,0.00,Weather View 32 v70,2013-07-13 19:23:00,
2013-07-13 15:28:00,79.0,31.8,30.42,ENE,67,0.0,6.0,18,0.00,,,0.00,Weather View 32 v70,2013-07-13 19:28:00,
2013-07-13 15:33:00,79.0,25.6,30.42,SSE,157,2.0,6.0,14,0.00,,,0.00,Weather View 32 v70,2013-07-13 19:33:00,
2013-07-13 15:38:00,79.0,28.9,30.42,South,180,0.0,6.0,16,0.00,,,0.00,Weather View 32 v70,2013-07-13 19:38:00,
2013-07-13 15:43:00,80.0,32.6,30.42,SE,135,3.0,6.0,18,0.00,,,0.00,Weather View 32 v70,2013-07-13 19:43:00,
2013-07-13 15:48:00,80.0,29.7,30.41,SSW,202,1.0,6.0,16,0.00,,,0.00,Weather View 32 v70,2013-07-13 19:48:00,
2013-07-13 15:53:00,80.0,32.6,30.42,SSW,202,0.0,6.0,18,0.00,,,0.00,Weather View 32 v70,2013-07-13 19:53:00,
2013-07-13 15:58:00,79.0,34.4,30.42,SE,135,0.0,6.0,20,0.00,,,0.00,Weather View 32 v70,2013-07-13 19:58:00,
2013-07-13 16:03:00,79.0,28.9,30.42,ESE,112,0.0,6.0,16,0.00,,,0.00,Weather View 32 v70,2013-07-13 20:03:00,
2013-07-13 16:08:00,79.0,28.9,30.42,SSE,157,3.0,6.0,16,0.00,,,0.00,Weather View 32 v70,2013-07-13 20:08:00,
2013-07-13 16:13:00,79.0,27.3,30.42,South,180,0.0,6.0,15,0.00,,,0.00,Weather View 32 v70,2013-07-13 20:13:00,
2013-07-13 16:18:00,78.0,23.1,30.42,NE,45,0.0,6.0,13,0.00,,,0.00,Weather View 32 v70,2013-07-13 20:18:00,
2013-07-13 16:23:00,78.0,19.1,30.42,WSW,247,1.0,6.0,11,0.00,,,0.00,Weather View 32 v70,2013-07-13 20:23:00,
2013-07-13 16:28:00,78.0,23.1,30.41,SW,225,3.0,6.0,13,0.00,,,0.00,Weather View 32 v70,2013-07-13 20:28:00,
2013-07-13 16:33:00,78.0,11.8,30.41,South,180,3.0,6.0,8,0.00,,,0.00,Weather View 32 v70,2013-07-13 20:33:00,
2013-07-13 16:38:00,78.0,14.5,30.41,SSE,157,1.0,6.0,9,0.00,,,0.00,Weather View 32 v70,2013-07-13 20:38:00,
2013-07-13 16:43:00,78.0,21.2,30.41,South,180,2.0,6.0,12,0.00,,,0.00,Weather View 32 v70,2013-07-13 20:43:00,
2013-07-13 16:44:00,78.0,21.2,30.41,SSE,157,2.0,6.0,12,0.00,,,0.00,Weather View 32 v70,2013-07-13 20:44:00,
2013-07-13 16:49:00,78.0,16.9,30.41,NE,45,0.0,6.0,10,0.00,,,0.00,Weather View 32 v70,2013-07-13 20:49:00,
2013-07-13 16:54:00,78.0,19.1,30.41,SW,225,3.0,6.0,11,0.00,,,0.00,Weather View 32 v70,2013-07-13 20:54:00,
2013-07-13 16:59:00,78.0,14.5,30.41,SSW,202,2.0,6.0,9,0.00,,,0.00,Weather View 32 v70,2013-07-13 20:59:00,
2013-07-13 17:04:00,78.0,19.1,30.41,SE,135,0.0,6.0,11,0.00,,,0.00,Weather View 32 v70,2013-07-13 21:04:00,
2013-07-13 17:09:00,78.0,23.1,30.41,SSW,202,1.0,6.0,13,0.00,,,0.00,Weather View 32 v70,2013-07-13 21:09:00,
2013-07-13 17:14:00,78.0,11.8,30.41,SSE,157,0.0,6.0,8,0.00,,,0.00,Weather View 32 v70,2013-07-13 21:14:00,
2013-07-13 17:19:00,78.0,11.8,30.41,SSE,157,0.0,6.0,8,0.00,,,0.00,Weather View 32 v70,2013-07-13 21:19:00,
2013-07-13 17:24:00,78.0,14.5,30.41,SSE,157,0.0,6.0,9,0.00,,,0.00,Weather View 32 v70,2013-07-13 21:24:00,
2013-07-13 17:29:00,78.0,11.8,30.41,SSE,157,0.0,6.0,8,0.00,,,0.00,Weather View 32 v70,2013-07-13 21:29:00,
2013-07-13 17:34:00,78.0,19.1,30.41,South,180,5.0,6.0,11,0.00,,,0.00,Weather View 32 v70,2013-07-13 21:34:00,
2013-07-13 17:39:00,78.0,19.1,30.41,ENE,67,0.0,6.0,11,0.00,,,0.00,Weather View 32 v70,2013-07-13 21:39:00,
2013-07-13 17:44:00,78.0,14.5,30.41,SE,135,1.0,6.0,9,0.00,,,0.00,Weather View 32 v70,2013-07-13 21:44:00,
2013-07-13 17:49:00,78.0,14.5,30.40,ESE,112,0.0,6.0,9,0.00,,,0.00,Weather View 32 v70,2013-07-13 21:49:00,
2013-07-13 17:54:00,78.0,19.1,30.40,SW,225,2.0,6.0,11,0.00,,,0.00,Weather View 32 v70,2013-07-13 21:54:00,
2013-07-13 17:59:00,78.0,8.8,30.40,SSW,202,2.0,6.0,7,0.00,,,0.00,Weather View 32 v70,2013-07-13 21:59:00,
2013-07-13 18:04:00,78.0,5.4,30.41,SE,135,2.0,6.0,6,0.00,,,0.00,Weather View 32 v70,2013-07-13 22:04:00,
2013-07-13 18:09:00,78.0,8.8,30.41,SW,225,2.0,6.0,7,0.00,,,0.00,Weather View 32 v70,2013-07-13 22:09:00,
2013-07-13 18:14:00,78.0,8.8,30.41,SSW,202,0.0,6.0,7,0.00,,,0.00,Weather View 32 v70,2013-07-13 22:14:00,
2013-07-13 18:19:00,78.0,5.4,30.41,SSW,202,0.0,6.0,6,0.00,,,0.00,Weather View 32 v70,2013-07-13 22:19:00,
2013-07-13 18:24:00,78.0,1.5,30.41,SE,135,0.0,6.0,5,0.00,,,0.00,Weather View 32 v70,2013-07-13 22:24:00,
2013-07-13 18:29:00,78.0,-3.2,30.41,SW,225,0.0,6.0,4,0.00,,,0.00,Weather View 32 v70,2013-07-13 22:29:00,
2013-07-13 18:34:00,78.0,-30.3,30.41,SSE,157,2.0,6.0,1,0.00,,,0.00,Weather View 32 v70,2013-07-13 22:34:00,
2013-07-13 18:39:00,77.0,-30.9,30.41,SE,135,0.0,6.0,1,0.00,,,0.00,Weather View 32 v70,2013-07-13 22:39:00,
2013-07-13 18:44:00,77.0,-30.9,30.41,SSW,202,0.0,6.0,1,0.00,,,0.00,Weather View 32 v70,2013-07-13 22:44:00,
2013-07-13 18:49:00,77.0,-30.9,30.41,South,180,0.0,6.0,1,0.00,,,0.00,Weather View 32 v70,2013-07-13 22:49:00,
2013-07-13 18:54:00,77.0,-30.9,30.41,SSW,202,2.0,6.0,1,0.00,,,0.00,Weather View 32 v70,2013-07-13 22:54:00,
2013-07-13 18:59:00,76.0,-31.5,30.41,South,180,2.0,6.0,1,0.00,,,0.00,Weather View 32 v70,2013-07-13 22:59:00,
2013-07-13 19:04:00,76.0,-31.5,30.41,South,180,1.0,6.0,1,0.00,,,0.00,Weather View 32 v70,2013-07-13 23:04:00,
2013-07-13 19:09:00,76.0,-31.5,30.41,South,180,0.0,6.0,1,0.00,,,0.00,Weather View 32 v70,2013-07-13 23:09:00,
2013-07-13 19:14:00,75.0,-32.1,30.41,ESE,112,0.0,6.0,1,0.00,,,0.00,Weather View 32 v70,2013-07-13 23:14:00,
2013-07-13 19:19:00,75.0,-32.1,30.41,SSE,157,0.0,6.0,1,0.00,,,0.00,Weather View 32 v70,2013-07-13 23:19:00,
2013-07-13 19:24:00,75.0,-32.1,30.42,SSW,202,2.0,6.0,1,0.00,,,0.00,Weather View 32 v70,2013-07-13 23:24:00,
2013-07-13 19:29:00,75.0,-32.1,30.42,SSW,202,0.0,6.0,1,0.00,,,0.00,Weather View 32 v70,2013-07-13 23:29:00,
2013-07-13 19:34:00,75.0,-32.1,30.42,SSE,157,3.0,6.0,1,0.00,,,0.00,Weather View 32 v70,2013-07-13 23:34:00,
2013-07-13 19:39:00,75.0,-32.1,30.42,South,180,0.0,4.0,1,0.00,,,0.00,Weather View 32 v70,2013-07-13 23:39:00,
2013-07-13 19:44:00,74.0,-32.7,30.42,SE,135,0.0,4.0,1,0.00,,,0.00,Weather View 32 v70,2013-07-13 23:44:00,
2013-07-13 19:49:00,74.0,-32.7,30.42,SE,135,0.0,4.0,1,0.00,,,0.00,Weather View 32 v70,2013-07-13 23:49:00,
2013-07-13 19:54:00,74.0,-32.7,30.42,SE,135,0.0,4.0,1,0.00,,,0.00,Weather View 32 v70,2013-07-13 23:54:00,
2013-07-13 19:59:00,74.0,-32.7,30.42,SE,135,0.0,4.0,1,0.00,,,0.00,Weather View 32 v70,2013-07-13 23:59:00,
2013-07-13 20:04:00,73.0,-33.3,30.42,SE,135,0.0,4.0,1,0.00,,,0.00,Weather View 32 v70,2013-07-14 00:04:00,
2013-07-13 20:10:00,73.0,-33.3,30.42,SE,135,0.0,4.0,1,0.00,,,0.00,Weather View 32 v70,2013-07-14 00:10:00,
2013-07-13 20:15:00,73.0,-33.3,30.42,SE,135,0.0,4.0,1,0.00,,,0.00,Weather View 32 v70,2013-07-14 00:15:00,
2013-07-13 20:20:00,72.0,-33.9,30.42,SE,135,0.0,4.0,1,0.00,,,0.00,Weather View 32 v70,2013-07-14 00:20:00,
2013-07-13 20:25:00,72.0,-33.9,30.42,SE,135,0.0,3.0,1,0.00,,,0.00,Weather View 32 v70,2013-07-14 00:25:00,
2013-07-13 20:30:00,72.0,-33.9,30.41,SE,135,0.0,3.0,1,0.00,,,0.00,Weather View 32 v70,2013-07-14 00:30:00,
2013-07-13 20:35:00,72.0,-33.9,30.41,SE,135,0.0,3.0,1,0.00,,,0.00,Weather View 32 v70,2013-07-14 00:35:00,
2013-07-13 20:40:00,72.0,-33.9,30.41,SE,135,0.0,1.0,1,0.00,,,0.00,Weather View 32 v70,2013-07-14 00:40:00,
2013-07-13 20:45:00,72.0,-33.9,30.41,SE,135,0.0,1.0,1,0.00,,,0.00,Weather View 32 v70,2013-07-14 00:45:00,
2013-07-13 20:50:00,71.0,-34.5,30.41,SE,135,0.0,0.0,1,0.00,,,0.00,Weather View 32 v70,2013-07-14 00:50:00,
2013-07-13 20:55:00,71.0,-34.5,30.41,SE,135,0.0,0.0,1,0.00,,,0.00,Weather View 32 v70,2013-07-14 00:55:00,
2013-07-13 21:00:00,71.0,-34.5,30.41,SE,135,0.0,0.0,1,0.00,,,0.00,Weather View 32 v70,2013-07-14 01:00:00,
2013-07-13 21:05:00,71.0,-34.5,30.41,SE,135,0.0,0.0,1,0.00,,,0.00,Weather View 32 v70,2013-07-14 01:05:00,
2013-07-13 21:10:00,71.0,-34.5,30.41,SE,135,0.0,0.0,1,0.00,,,0.00,Weather View 32 v70,2013-07-14 01:10:00,
2013-07-13 21:15:00,71.0,-34.5,30.41,SE,135,0.0,0.0,1,0.00,,,0.00,Weather View 32 v70,2013-07-14 01:15:00,
2013-07-13 21:20:00,71.0,-34.5,30.41,SE,135,0.0,0.0,1,0.00,,,0.00,Weather View 32 v70,2013-07-14 01:20:00,
2013-07-13 21:25:00,70.0,-35.1,30.41,SE,135,0.0,0.0,1,0.00,,,0.00,Weather View 32 v70,2013-07-14 01:25:00,
2013-07-13 21:30:00,70.0,-35.1,30.41,SE,135,0.0,0.0,1,0.00,,,0.00,Weather View 32 v70,2013-07-14 01:30:00,
2013-07-13 21:35:00,70.0,-35.1,30.40,SE,135,0.0,0.0,1,0.00,,,0.00,Weather View 32 v70,2013-07-14 01:35:00,
2013-07-13 21:40:00,70.0,-35.1,30.40,SE,135,0.0,0.0,1,0.00,,,0.00,Weather View 32 v70,2013-07-14 01:40:00,
2013-07-13 21:45:00,70.0,-35.1,30.40,SE,135,0.0,0.0,1,0.00,,,0.00,Weather View 32 v70,2013-07-14 01:45:00,
2013-07-13 21:50:00,70.0,-35.1,30.40,SE,135,0.0,0.0,1,0.00,,,0.00,Weather View 32 v70,2013-07-14 01:50:00,
2013-07-13 21:55:00,70.0,-35.1,30.40,SE,135,0.0,0.0,1,0.00,,,0.00,Weather View 32 v70,2013-07-14 01:55:00,
2013-07-13 22:00:00,70.0,-35.1,30.40,SE,135,0.0,0.0,1,0.00,,,0.00,Weather View 32 v70,2013-07-14 02:00:00,
2013-07-13 22:05:00,70.0,-35.1,30.40,SE,135,0.0,0.0,1,0.00,,,0.00,Weather View 32 v70,2013-07-14 02:05:00,
2013-07-13 22:10:00,70.0,-35.1,30.40,SE,135,0.0,0.0,1,0.00,,,0.00,Weather View 32 v70,2013-07-14 02:10:00,
2013-07-13 22:15:00,69.0,-35.7,30.40,SE,135,0.0,1.0,1,0.00,,,0.00,Weather View 32 v70,2013-07-14 02:15:00,
2013-07-13 22:20:00,69.0,-35.7,30.40,SE,135,0.0,1.0,1,0.00,,,0.00,Weather View 32 v70,2013-07-14 02:20:00,
2013-07-13 22:25:00,69.0,-35.7,30.40,SE,135,1.0,1.0,1,0.00,,,0.00,Weather View 32 v70,2013-07-14 02:25:00,
2013-07-13 22:30:00,69.0,-35.7,30.39,SE,135,0.0,2.0,1,0.00,,,0.00,Weather View 32 v70,2013-07-14 02:30:00,
2013-07-13 22:35:00,69.0,-35.7,30.39,SE,135,0.0,2.0,1,0.00,,,0.00,Weather View 32 v70,2013-07-14 02:35:00,
2013-07-13 22:40:00,69.0,-35.7,30.39,SE,135,0.0,2.0,1,0.00,,,0.00,Weather View 32 v70,2013-07-14 02:40:00,
2013-07-13 22:46:00,69.0,-35.7,30.39,SE,135,0.0,2.0,1,0.00,,,0.00,Weather View 32 v70,2013-07-14 02:46:00,
2013-07-13 22:51:00,69.0,-35.7,30.39,SE,135,0.0,2.0,1,0.00,,,0.00,Weather View 32 v70,2013-07-14 02:51:00,
2013-07-13 22:56:00,69.0,-35.7,30.39,SE,135,0.0,2.0,1,0.00,,,0.00,Weather View 32 v70,2013-07-14 02:56:00,
2013-07-13 23:01:00,69.0,-35.7,30.40,SE,135,0.0,2.0,1,0.00,,,0.00,Weather View 32 v70,2013-07-14 03:01:00,
2013-07-13 23:06:00,68.0,-36.3,30.40,SE,135,0.0,2.0,1,0.00,,,0.00,Weather View 32 v70,2013-07-14 03:06:00,
2013-07-13 23:11:00,68.0,-36.3,30.40,SE,135,0.0,2.0,1,0.00,,,0.00,Weather View 32 v70,2013-07-14 03:11:00,
2013-07-13 23:16:00,68.0,-36.3,30.40,SE,135,0.0,2.0,1,0.00,,,0.00,Weather View 32 v70,2013-07-14 03:16:00,
2013-07-13 23:21:00,68.0,-36.3,30.40,SE,135,0.0,2.0,1,0.00,,,0.00,Weather View 32 v70,2013-07-14 03:21:00,
2013-07-13 23:26:00,68.0,-36.3,30.40,SE,135,0.0,2.0,1,0.00,,,0.00,Weather View 32 v70,2013-07-14 03:26:00,
2013-07-13 23:31:00,68.0,-36.3,30.40,SE,135,0.0,0.0,1,0.00,,,0.00,Weather View 32 v70,2013-07-14 03:31:00,
2013-07-13 23:36:00,68.0,-36.3,30.40,SE,135,0.0,0.0,1,0.00,,,0.00,Weather View 32 v70,2013-07-14 03:36:00,
2013-07-13 23:41:00,68.0,-36.3,30.40,SE,135,0.0,0.0,1,0.00,,,0.00,Weather View 32 v70,2013-07-14 03:41:00,
2013-07-13 23:46:00,68.0,-36.3,30.40,SE,135,0.0,0.0,1,0.00,,,0.00,Weather View 32 v70,2013-07-14 03:46:00,
2013-07-13 23:51:00,68.0,-36.3,30.40,SE,135,0.0,0.0,1,0.00,,,0.00,Weather View 32 v70,2013-07-14 03:51:00,
2013-07-13 23:56:00,68.0,-36.3,30.39,SE,135,0.0,0.0,1,0.00,,,0.00,Weather View 32 v70,2013-07-14 03:56:00,